Meteo Giornale » Osservazioni meteo Stati Uniti (USA) » Pittsfield

ore: 15:54 - Osservazioni Meteo Pittsfield
Lat. 42° 25' N Lon. 73° 17' W Alt. 364 metri s.l.m.

coperto_pioggia

19 °C

Pioggia

Temp. 24 Ore

18 °C

22 °C

Nord

5.5 Km/h

Dew point 18 °C

Umidità 93 %

Visibilità  10 Km

Il sole sorge alle ore 06:18

Il sole tramonta alle ore 19:27

Data e Ora Cielo e Fenomeni T °C DP °C Um. % Pres. hPa Vis. km Vento km/h
Oggi h: 15:54 coperto_pioggia Pioggia 19 18 93 1016 10 N 5.5
Oggi h: 15:49 coperto_pioggia Pioggia 19 18 93 1016 13 E/NE 9.3
Oggi h: 14:54 coperto Coperto 20 19 93 1016 10 N 0
Oggi h: 14:52 coperto Coperto 20 19 93 1016 10 E/NE 7.4
Oggi h: 14:37 coperto_pioggia Pioggia 20 19 93 1016 10 E/NE 7.4
Oggi h: 13:54 coperto Coperto 19 19 100 1016 10 N 5.5
Oggi h: 13:29 coperto Coperto 19 18 93 1016 10 NE 7.4
Oggi h: 13:04 coperto Coperto 20 18 88 1016 10 N 5.5
Oggi h: 12:54 coperto Coperto 20 19 93 1016 10 E/NE 9.3
Oggi h: 12:41 coperto Coperto 19 19 100 1016 10 N 5.5
Oggi h: 12:32 coperto Coperto 19 18 93 1016 10 NE 7.4
Oggi h: 12:19 coperto_pioggia Pioggia 19 18 93 1016 14 NE 7.4
Oggi h: 11:59 coperto_pioggia Pioggia Foschia 18 18 100 1016 5 N 5.5
Oggi h: 11:54 coperto_pioggia Pioggia Foschia 18 18 100 1016 5 E/NE 7.4
Oggi h: 11:52 coperto_pioggia Pioggia Foschia 18 18 100 1016 5 E/NE 7.4
Oggi h: 10:54 coperto Coperto 18 18 100 1016 10 N 5.5
Oggi h: 10:29 coperto Coperto 18 18 100 1016 10 N 5.5
Oggi h: 10:06 coperto Coperto 18 18 100 1016 10 N/NE 9.3
Oggi h: 09:54 coperto Coperto 18 18 100 1016 10 NE 7.4
Oggi h: 09:42 coperto_pioggia Pioggia 18 18 100 1016 13 N/NE 7.4
Oggi h: 09:35 coperto_pioggia Pioggia 18 18 100 1016 10 N 5.5
Oggi h: 09:16 coperto_pioggia Pioggia 18 18 100 1017 10 N 5.5
Oggi h: 08:54 coperto_pioggia Pioggia 18 18 100 1017 10 NE 7.4
Oggi h: 08:49 coperto_pioggia Pioggia 18 18 100 1016 10 E/NE 7.4
Oggi h: 08:22 coperto_pioggia Pioggia Foschia 18 17 93 1017 6 E/NE 9.3
Oggi h: 08:04 coperto_pioggia Pioggia Foschia 18 17 93 1017 3 N 5.5
Oggi h: 07:54 coperto_pioggia Pioggia Foschia 18 17 93 1017 6 N 5.5
Oggi h: 07:50 coperto_pioggia Pioggia Foschia 18 17 93 1017 5 E 7.4
Oggi h: 07:44 coperto_pioggia Pioggia Foschia 18 17 93 1017 2 NE 9.3
Oggi h: 07:33 coperto_pioggia Pioggia Foschia 18 18 100 1017 5 N/NE 9.3
Oggi h: 07:26 coperto_pioggia Pioggia Foschia 18 18 100 1017 2 N 16.7
Oggi h: 07:14 coperto_pioggia Pioggia 18 18 100 1016 14 S 9.3
Oggi h: 07:04 coperto_pioggia Pioggia Foschia 18 18 100 1016 8 S/SE 11.1
Oggi h: 06:54 coperto_pioggia Pioggia Foschia 18 18 100 1016 2 N 0
Oggi h: 06:48 coperto_pioggia Pioggia Foschia 18 18 100 1016 5 N 5.5
Oggi h: 06:41 coperto_pioggia Pioggia Foschia 18 18 100 1016 2 E/NE 9.3
Oggi h: 06:34 coperto_pioggia Pioggia Foschia 18 18 100 1016 5 N 5.5
Oggi h: 06:22 coperto_pioggia Pioggia Foschia 18 18 100 1016 3 N 5.5
Oggi h: 06:13 coperto_pioggia Pioggia Foschia 18 18 100 1016 2 N 5.5
Oggi h: 05:54 coperto_pioggia Pioggia Foschia 18 18 100 1016 2 N 7.4
Oggi h: 05:50 coperto_pioggia Pioggia Foschia 18 18 100 1016 2 N 0
Oggi h: 05:05 foschia Foschia 18 17 93 1016 2 NE 7.4
Oggi h: 04:54 coperto_pioggia Pioggia Foschia 18 17 93 1016 5 N 5.5
Oggi h: 04:49 coperto_pioggia Pioggia Foschia 18 17 93 1016 3 N 0
Oggi h: 04:42 coperto_pioggia Pioggia Foschia 18 17 93 1016 5 N 0
Oggi h: 04:21 foschia Foschia 18 17 93 1017 2 N 0
Oggi h: 04:10 foschia Foschia 18 17 93 1017 5 N 0
Oggi h: 03:54 foschia Foschia 18 17 93 1017 3 N 0
Oggi h: 03:41 foschia Foschia 18 17 93 1017 2 N 0
Oggi h: 02:54 coperto Coperto 18 17 93 1017 10 N 0
Oggi h: 01:54 coperto Coperto 18 17 93 1018 10 N 0
Oggi h: 00:54 coperto Coperto 18 17 93 1018 10 N 5.5
Ieri h: 23:54 coperto Coperto 18 17 93 1018 10 N 5.5
Ieri h: 23:12 coperto Coperto 18 17 93 1018 10 N 0
Ieri h: 22:54 coperto Coperto 18 17 93 1018 10 N 5.5
Ieri h: 22:51 coperto Coperto 18 17 93 1018 10 N 5.5
Ieri h: 22:32 coperto Coperto 18 17 93 1018 10 N 5.5
Ieri h: 22:21 coperto Coperto 18 17 93 1018 10 N 0
Ieri h: 22:16 coperto Coperto 18 17 93 1018 10 N 5.5
Ieri h: 22:12 coperto Coperto 19 17 88 1018 10 N 0
Ieri h: 21:54 coperto Coperto 19 17 88 1018 10 S 7.4
Ieri h: 21:49 coperto Coperto 19 17 88 1018 10 N 5.5
Ieri h: 21:32 coperto Coperto 19 17 88 1018 10 N 5.5
Ieri h: 20:54 coperto Coperto 20 17 82 1018 10 SO 7.4
Ieri h: 19:54 coperto Coperto 20 17 82 1018 10 N 0
Ieri h: 18:54 coperto Coperto 21 16 73 1019 10 N 0
Ieri h: 17:54 molto_nuvoloso Molto Nuvoloso 22 16 68 1019 10 SO 16.7
Ieri h: 17:31 coperto Coperto 22 17 73 1019 10 S/SO 7.4
Ieri h: 17:09 coperto Coperto 21 17 77 1019 10 S/SO 9.3
Ieri h: 16:54 coperto Coperto 22 17 73 1019 10 O/SO 7.4
Ieri h: 16:38 coperto Coperto 22 17 73 1019 10 S/SO 11.1